Orbital Elements at Epoch 2459000.5 (2020-May-31.0) TDB
Reference: JPL 8 (heliocentric ecliptic J2000)
Element | Value | Uncertainty (1-sigma) | Units |
e | .2659780382555009 | 0.00028688 | |
a | .8991396450563343 | 5.1941e-05 | au |
q | .6599882461465032 | 0.00029604 | au |
i | 5.585821989592131 | 0.0074105 | deg |
node | 356.0176219498748 | 0.0017462 | deg |
peri | 44.73549561575559 | 0.0070459 | deg |
M | 149.9285051044614 | 0.19504 | deg |
tp | 2458870.805709541760 (2020-Jan-22.30570954) | 0.15748 | TDB |
period | 311.4147275225317 0.85 | 0.026984 7.388e-05 | d yr |
n | 1.156014690968503 | 0.00010017 | deg/d |
Q | 1.138291043966165 | 6.5756e-05 | au |
|
| | Orbit Determination Parameters
Additional Information
|